GW4400 Weather Reports


Display with metric or nautical units.
time (UTC)temp
F
wind
direction
speed
MPH
gust
MPH
rain 1hr
in
rain 24hr
in
rain mn
in
humidity
%
barometer
mb
20260504081510 37 226 0.0 0.0 0.00 0.00 0.00 95 1017.1
20260504081010 37 226 0.0 0.0 0.00 0.00 0.00 95 1017.0
20260504080509 37 226 0.0 0.0 0.00 0.00 0.00 95 1017.0
20260504050535 41 226 0.0 0.0 0.00 0.00 0.00 94 1018.1
20260504045533 41 226 0.0 0.0 0.00 0.00 0.00 94 1018.1
20260504045034 41 226 0.0 0.0 0.00 0.00 0.00 94 1017.9
20260504044532 40 226 0.0 0.0 0.00 0.00 0.00 93 1017.9
20260504044031 41 226 0.0 0.0 0.00 0.00 0.00 93 1017.9
20260504043530 41 226 0.0 0.0 0.00 0.00 0.00 93 1017.9
20260504043028 41 226 0.0 0.0 0.00 0.00 0.00 93 1017.8
20260504042528 41 226 0.0 0.0 0.00 0.00 0.00 93 1017.7
20260504042027 41 226 0.0 0.0 0.00 0.00 0.00 93 1017.7
20260504041525 42 226 0.0 0.0 0.00 0.00 0.00 93 1017.7
20260504041024 42 226 0.0 0.0 0.00 0.00 0.00 93 1017.7
20260504040522 42 226 0.0 0.0 0.00 0.00 0.00 93 1017.8
20260504040024 42 226 0.0 0.0 0.00 0.00 0.00 93 1017.8
20260504035524 42 226 0.0 0.0 0.00 0.00 0.00 93 1017.8
20260504035021 42 226 0.0 0.0 0.00 0.00 0.00 92 1017.8
20260504034530 42 226 0.0 0.0 0.00 0.00 0.00 92 1017.8
20260504034018 43 226 0.0 0.0 0.00 0.00 0.00 92 1017.6
20260504033518 43 226 0.0 0.0 0.00 0.00 0.00 93 1017.6
20260504033033 43 226 0.0 0.0 0.00 0.00 0.00 93 1017.7
20260504032518 43 226 0.0 0.0 0.00 0.00 0.00 92 1017.6
20260504032017 43 226 0.0 0.0 0.00 0.00 0.00 92 1017.5
20260504031517 43 226 0.0 0.0 0.00 0.00 0.00 92 1017.6
20260504031016 43 226 0.0 0.0 0.00 0.00 0.00 92 1017.6
20260504030515 44 226 0.0 0.0 0.00 0.00 0.00 92 1017.7
20260504030015 44 226 0.0 0.0 0.00 0.00 0.00 91 1017.7
20260504025514 44 226 0.0 0.0 0.00 0.00 0.00 91 1017.7
20260504025019 44 226 0.0 0.0 0.00 0.00 0.00 91 1017.7
20260504024534 44 226 0.0 0.0 0.00 0.00 0.00 91 1017.7
20260504024012 44 226 0.0 0.0 0.00 0.00 0.00 91 1017.7
20260504023511 45 226 0.0 0.0 0.00 0.00 0.00 91 1017.6
20260504023011 45 226 0.0 0.0 0.00 0.00 0.00 91 1017.5
20260504022511 45 226 0.0 0.0 0.00 0.00 0.00 91 1017.5
20260504022014 45 226 0.0 0.0 0.00 0.00 0.00 90 1017.5
20260504021510 46 226 0.0 0.0 0.00 0.00 0.00 90 1017.4
20260504021008 46 226 0.0 0.0 0.00 0.00 0.00 90 1017.4
20260504020508 46 226 0.0 0.0 0.00 0.00 0.00 89 1017.2
20260504020012 46 226 0.0 0.0 0.00 0.00 0.00 90 1017.2
20260504015507 46 294 0.0 0.0 0.00 0.00 0.00 89 1017.2
20260504015007 47 294 0.0 0.0 0.00 0.00 0.00 89 1017.1
20260504014506 47 294 0.0 0.0 0.00 0.00 0.00 89 1017.1
20260504014007 47 294 0.0 0.0 0.00 0.00 0.00 88 1017.1
20260504013506 47 295 0.0 0.0 0.00 0.00 0.00 88 1017.0
20260504013005 48 294 0.0 0.0 0.00 0.00 0.00 88 1017.0
20260504012504 48 294 0.0 0.0 0.00 0.00 0.00 88 1016.8
20260504012004 48 295 0.0 0.0 0.00 0.00 0.00 87 1016.8
20260504011504 48 294 0.0 0.0 0.00 0.00 0.00 87 1016.8
20260504011003 49 294 0.0 0.0 0.00 0.00 0.00 85 1016.7
20260504010502 49 294 0.0 0.0 0.00 0.00 0.00 84 1016.7
20260504010002 50 295 0.0 0.0 0.00 0.00 0.00 84 1016.6
20260504005501 50 295 0.0 0.0 0.00 0.00 0.00 83 1016.6
20260504005002 51 294 0.0 0.0 0.00 0.00 0.00 83 1016.5
20260504004622 51 294 0.0 0.0 0.00 0.00 0.00 82 1016.5
20260504004059 52 295 0.0 0.0 0.00 0.00 0.00 81 1016.4
20260504003558 52 295 0.0 0.0 0.00 0.00 0.00 80 1016.3
20260504003102 53 294 0.0 0.0 0.00 0.00 0.00 80 1016.2
20260504002558 53 295 0.0 0.0 0.00 0.00 0.00 80 1016.3
20260504002059 54 294 0.0 0.0 0.00 0.00 0.00 80 1016.4
20260504001601 55 294 0.0 0.0 0.00 0.00 0.00 77 1016.3
20260504001057 56 295 0.0 0.0 0.00 0.00 0.00 75 1016.3
20260504000554 56 295 0.0 0.0 0.00 0.00 0.00 75 1016.4
20260504000055 57 294 0.0 0.0 0.00 0.00 0.00 74 1016.5
20260503235553 58 294 0.0 0.0 0.00 0.00 0.00 74 1016.4
20260503235055 59 293 0.0 0.0 0.00 0.00 0.00 72 1016.4
20260503234552 60 293 0.0 0.0 0.00 0.00 0.00 69 1016.5
20260503234053 62 293 0.0 0.0 0.00 0.00 0.00 67 1016.4
20260503233551 64 293 0.0 0.0 0.00 0.00 0.00 62 1016.3
20260503233051 66 295 0.0 0.0 0.00 0.00 0.00 56 1016.4
20260503232549 67 294 0.0 0.0 0.00 0.00 0.00 51 1016.3
20260503232049 68 294 0.0 0.0 0.00 0.00 0.00 53 1016.3
20260503231554 68 312 0.0 0.0 0.00 0.00 0.00 48 1016.4
20260503231052 68 309 0.0 0.0 0.00 0.00 0.00 54 1016.4
20260503230547 68 276 0.0 0.0 0.00 0.00 0.00 46 1016.4
20260503230050 68 250 0.0 0.0 0.00 0.00 0.00 46 1016.4
20260503225644 68 282 0.0 0.0 0.00 0.00 0.00 47 1016.4
20260503225042 68 322 0.0 0.0 0.00 0.00 0.00 49 1016.5
20260503224542 67 329 0.0 0.0 0.00 0.00 0.00 48 1016.4
20260503224041 67 288 0.0 0.0 0.00 0.00 0.00 45 1016.6
20260503223540 67 311 0.0 0.0 0.00 0.00 0.00 48 1016.5
20260503223040 68 297 0.0 0.0 0.00 0.00 0.00 48 1016.6
20260503222538 68 278 0.0 0.0 0.00 0.00 0.00 48 1016.6
20260503222040 69 290 0.0 0.0 0.00 0.00 0.00 48 1016.7
20260503221539 69 287 0.0 0.0 0.00 0.00 0.00 48 1016.7
20260503221039 68 264 0.0 0.0 0.00 0.00 0.00 50 1016.6
20260503220536 67 240 0.0 1.0 0.00 0.00 0.00 50 1016.8
20260503220039 67 68 0.0 1.0 0.00 0.00 0.00 50 1016.8
20260503215535 67 302 0.0 1.0 0.00 0.00 0.00 49 1016.7
20260503215034 68 345 0.0 1.0 0.00 0.00 0.00 51 1016.8
20260503214534 68 51 0.0 3.0 0.00 0.00 0.00 52 1016.7
20260503214032 68 354 0.0 1.0 0.00 0.00 0.00 49 1016.7
20260503213532 69 298 0.0 0.0 0.00 0.00 0.00 50 1016.8
20260503213031 68 265 0.0 0.0 0.00 0.00 0.00 49 1016.8
20260503212533 68 288 0.0 3.0 0.00 0.00 0.00 51 1016.9
20260503212030 67 24 0.0 3.0 0.00 0.00 0.00 53 1016.9
20260503211537 67 340 0.0 7.0 0.00 0.00 0.00 51 1016.9
20260503211028 67 356 0.0 7.0 0.00 0.00 0.00 51 1017.0
20260503210527 67 31 0.0 1.0 0.00 0.00 0.00 51 1017.0
20260503210030 67 59 0.0 3.0 0.00 0.00 0.00 49 1017.1
20260503205533 67 292 0.0 3.0 0.00 0.00 0.00 53 1017.2
20260503205026 68 297 0.0 2.0 0.00 0.00 0.00 47 1017.3
20260503204524 68 89 0.0 2.0 0.00 0.00 0.00 50 1017.2
20260503204022 67 9 0.0 3.0 0.00 0.00 0.00 52 1017.3
20260503203522 67 310 0.0 3.0 0.00 0.00 0.00 49 1017.3
20260503203022 67 307 0.0 1.0 0.00 0.00 0.00 49 1017.3
20260503202520 66 288 0.0 3.0 0.00 0.00 0.00 50 1017.5
20260503202020 67 345 0.0 3.0 0.00 0.00 0.00 48 1017.6
20260503201518 67 194 0.0 2.0 0.00 0.00 0.00 47 1017.8
20260503201019 66 331 0.0 2.0 0.00 0.00 0.00 51 1017.7
20260503200516 66 294 0.0 4.0 0.00 0.00 0.00 52 1017.8
20260503200016 66 283 0.0 4.0 0.00 0.00 0.00 50 1017.9
20260503195517 66 246 0.0 3.0 0.00 0.00 0.00 47 1017.9
20260503195014 66 47 0.0 3.0 0.00 0.00 0.00 53 1018.2
20260503194514 66 293 0.0 0.0 0.00 0.00 0.00 52 1018.3
20260503194014 66 324 0.0 0.0 0.00 0.00 0.00 53 1018.3
20260503193512 66 285 0.0 1.0 0.00 0.00 0.00 55 1018.4
20260503193029 66 249 0.0 1.0 0.00 0.00 0.00 53 1018.5
20260503192509 66 25 0.0 1.0 0.00 0.00 0.00 55 1018.4
20260503192010 66 57 0.0 4.0 0.00 0.00 0.00 52 1018.5
20260503191507 66 293 0.0 4.0 0.00 0.00 0.00 54 1018.7
20260503191007 65 298 0.0 5.0 0.00 0.00 0.00 55 1018.7
20260503190507 65 248 0.0 2.0 0.00 0.00 0.00 55 1018.7
20260503190013 65 30 0.0 2.0 0.00 0.00 0.00 56 1018.8
20260503185504 65 311 0.0 4.0 0.00 0.00 0.00 51 1018.9
20260503185005 65 223 0.0 4.0 0.00 0.00 0.00 51 1019.0
20260503184504 64 298 0.0 7.0 0.00 0.00 0.00 53 1019.1
20260503184003 65 302 0.0 9.0 0.00 0.00 0.00 54 1019.0
20260503183502 65 238 0.0 9.0 0.00 0.00 0.00 50 1019.1
20260503183001 65 321 0.0 1.0 0.00 0.00 0.00 60 1019.0
20260503182603 65 314 0.0 1.0 0.00 0.00 0.00 53 1019.1
20260503182057 65 318 0.0 1.0 0.00 0.00 0.00 58 1019.1
20260503181559 64 273 0.0 2.0 0.00 0.00 0.00 55 1019.1
20260503181055 64 316 0.0 2.0 0.00 0.00 0.00 56 1019.2
20260503180553 64 2 0.0 2.0 0.00 0.00 0.00 60 1019.2
20260503180053 64 323 0.0 2.0 0.00 0.00 0.00 58 1019.3
20260503175551 64 34 0.0 0.0 0.00 0.00 0.00 59 1019.2
20260503175050 63 255 0.0 0.0 0.00 0.00 0.00 57 1019.3
20260503174605 63 302 0.0 1.0 0.00 0.00 0.00 57 1019.3
20260503174049 63 274 0.0 0.0 0.00 0.00 0.00 58 1019.3
20260503173548 63 314 0.0 0.0 0.00 0.00 0.00 57 1019.3
20260503173049 63 298 0.0 6.0 0.00 0.00 0.00 56 1019.5
20260503172549 63 288 0.0 6.0 0.00 0.00 0.00 62 1019.4
20260503172046 64 244 0.0 0.0 0.00 0.00 0.00 60 1019.6
20260503171545 63 358 0.0 4.0 0.00 0.00 0.00 57 1019.6
20260503171045 64 274 0.0 4.0 0.00 0.00 0.00 56 1019.8
20260503170543 63 338 0.0 0.0 0.00 0.00 0.00 59 1019.8
20260503150518 60 347 0.0 0.0 0.00 0.00 0.00 63 1020.6
20260503131039 51 120 0.0 0.0 0.00 0.00 0.00 88 1020.2
20260503130538 51 126 0.0 0.0 0.00 0.00 0.00 89 1020.3
20260503110558 34 322 0.0 0.0 0.00 0.00 0.00 95 1019.5